TITAN 3C TRANSTAGE DEB, 1961

Orbit data source: Space-Track

TITAN 3C TRANSTAGE DEB, 1961 is space debris in LEO originally from a launch on Fri, 15 Oct 1965 UTC launched from the Air Force Eastern Test Range (AFETR). Debris objects in space refer to the collection of defunct objects orbiting the Earth. Examples of debris include non-operational satellites, rocket bodies, and fragments generated from explosions, collisions, or faulty payload assembly.

Loading next visibility...
Identifier
1961, 1965-082GW
Orbit
LEO
Country
Flag of USUS
Related business
Manufacturer
Unknown
Mission
Spacecraft
Bus & Motor
Unknown
Mass
Unknown
Launch date (UTC)
1965-10-15 (60 years ago)
Launch vehicle
Unknown
Launch site
Air Force Eastern Test Range (AFETR)
Object type
Payload
Rocket body
Debris
Shape & HBR
Unknown shape, 0.1 m
Radar Cross Section
Small (<0.1 m²)

Expand to show TLE details & history
Last TLE update: 1 day ago

TLE from 1 day ago
0 TITAN 3C TRANSTAGE DEB
1 01961U 65082GW  25315.17240939  .00009829  00000-0  54433-3 0  9999
2 01961  31.8573 250.6452 0004033 255.3868 104.6340 15.12659614211076
Epoch: 2025-11-11T04:08Z
TLE epoch observation values (Epoch: 2025-11-11T04:08:16.171Z)
Latitude
0.00002°
Longitude
138.01507°
Altitude
527.39 km
Speed
7.601 km/s
True Right ascension
16h 42m 34s
True Declination
0° 00' 00"
Sunlit
Object was in daylight at epoch
Visualization orbit readout
Latitude
Unknown
Longitude
Unknown
Altitude
Unknown
Speed
Unknown
Apparent Right ascension
Unknown
Apparent Declination
Unknown
Sunlit
N/A
Visualization observer readout
Local Sidereal Time
01:00:05
Azimuth
Unknown
Elevation
Unknown
Doppler factor
Unknown
Orbital elements
Apogee altitude
534.598 km
Perigee altitude
529.024 km
Semi-major axis
6,909.948 km
Eccentricity
0.0004
Inclination
31.8573°
RAAN
250.6452°
Arg. of periapsis
255.3868°
True anomaly
104.67871°
Mean anomaly
104.634°
Eccentric anomaly
104.65636°
Mean motion
3.7786 °/min
Orbital period
95.27 mins
BSTAR
0.00054433

Documentation

Showing up to 5 results
|